Location: Unspecified
(47.1121°N, 116.3927°W)
Time: 11:36:55
(UTC-07:00)

ISS - Pass Details

Date: 27 May 2019
Orbit: 408 x 418 km, 51.6° (Epoch: 25 June)

Event Time Altitude Azimuth Distance (km) Brightness Sun altitude
Rises 23:38:01 0° 294° (WNW) 2,362 0.6 -19.9°
Reaches altitude 10° 23:40:08 10° 290° (WNW) 1,498 -0.5 -20.0°
Enters shadow 23:42:44 44° 258° (WSW) 590 -3.1 -20.1°
